This is the latest recevied weather packets stored in our database for station/object K7CTM. If no packets are shown the sender has not sent any weather packets the latest 10 day(s).
| Time | Temp. | Humidity | Pressure | Rain* | Wind** | Luminosity | Snow |
|---|---|---|---|---|---|---|---|
| 1777738129 | 13.89° C | 35% | 1028.5 hPa | 0 mm | - | 561 W/m² | - |
| 1777737827 | 13.89° C | 34% | 1028.7 hPa | 0 mm | - | 578 W/m² | - |
| 1777737526 | 13.33° C | 35% | 1028.8 hPa | 0 mm | - | 572 W/m² | - |
| 1777737223 | 12.78° C | 36% | 1028.6 hPa | 0 mm | - | 553 W/m² | - |
| 1777736919 | 12.78° C | 38% | 1028.7 hPa | 0 mm | - | 513 W/m² | - |
| 1777736311 | 12.22° C | 36% | 1028.7 hPa | 0 mm | - | 511 W/m² | - |
| 1777736007 | 11.67° C | 37% | 1028.7 hPa | 0 mm | - | 470 W/m² | - |
| 1777735705 | 11.11° C | 39% | 1028.7 hPa | 0 mm | - | 439 W/m² | - |
| 1777735402 | 11.11° C | 39% | 1028.8 hPa | 0 mm | - | 322 W/m² | - |
| 1777735100 | 11.11° C | 39% | 1028.9 hPa | 0 mm | - | 446 W/m² | - |
| 1777734796 | 10.56° C | 39% | 1028.9 hPa | 0 mm | - | 324 W/m² | - |
| 1777734494 | 10.56° C | 40% | 1028.9 hPa | 0 mm | - | 393 W/m² | - |
| 1777734190 | 10.56° C | 44% | 1028.9 hPa | 0 mm | - | 400 W/m² | - |
| 1777733887 | 10.56° C | 42% | 1028.9 hPa | 0 mm | - | 384 W/m² | - |
| 1777733584 | 10.56° C | 44% | 1028.9 hPa | 0 mm | - | 359 W/m² | - |
| 1777733280 | 9.44° C | 52% | 1028.9 hPa | 0 mm | - | 363 W/m² | - |
| 1777732977 | 9.44° C | 53% | 1028.9 hPa | 0 mm | - | 329 W/m² | - |
| 1777732673 | 7.78° C | 55% | 1028.9 hPa | 0 mm | - | 330 W/m² | - |
| 1777732370 | 7.22° C | 57% | 1028.9 hPa | 0 mm | - | 327 W/m² | - |
| 1777732068 | 8.89° C | 54% | 1028.9 hPa | 0 mm | - | 319 W/m² | - |
| 1777731764 | 7.22° C | 54% | 1028.9 hPa | 0 mm | - | 288 W/m² | - |
| 1777731461 | 6.67° C | 56% | 1028.8 hPa | 0 mm | - | 275 W/m² | - |
| 1777731160 | 6.11° C | 61% | 1029 hPa | 0 mm | - | 209 W/m² | - |
| 1777730857 | 5.56° C | 60% | 1029 hPa | 0 mm | - | 162 W/m² | - |
| 1777730555 | 5.56° C | 56% | 1029 hPa | 0 mm | - | 180 W/m² | - |
* Rain latest hour (hover to see other rain measurements)
** Current wind speed in m/s (hover to see current wind gust speed)